TimeMST,TemperatureF,Dew PointF,Humidity,Sea Level PressureIn,VisibilityMPH,Wind Direction,Wind SpeedMPH,Gust SpeedMPH,PrecipitationIn,Events,Conditions,WindDirDegrees,DateUTC
12:54 AM,21.0,9.0,60,30.09,10.0,SE,9.2,-,N/A,,Clear,130,2013-01-04 07:54:00
1:54 AM,21.0,9.0,60,30.10,10.0,SE,4.6,-,N/A,,Clear,130,2013-01-04 08:54:00
2:54 AM,24.1,10.9,57,30.11,10.0,South,6.9,-,N/A,,Clear,170,2013-01-04 09:54:00
3:54 AM,21.9,10.0,60,30.13,10.0,SE,4.6,-,N/A,,Clear,140,2013-01-04 10:54:00
4:54 AM,27.0,10.0,49,30.13,10.0,SW,11.5,-,N/A,,Clear,230,2013-01-04 11:54:00
6:54 AM,28.0,10.9,49,30.16,10.0,SW,15.0,-,N/A,,Clear,220,2013-01-04 13:54:00
7:54 AM,26.1,12.0,55,30.15,10.0,WSW,8.1,-,N/A,,Clear,240,2013-01-04 14:54:00
8:54 AM,28.9,15.1,56,30.17,10.0,SW,13.8,-,N/A,,Clear,220,2013-01-04 15:54:00
9:54 AM,32.0,17.1,54,30.17,10.0,SW,15.0,-,N/A,,Clear,220,2013-01-04 16:54:00
10:54 AM,36.0,21.0,55,30.15,10.0,SW,19.6,-,N/A,,Clear,230,2013-01-04 17:54:00
11:54 AM,39.0,21.0,49,30.12,10.0,West,20.7,31.1,N/A,,Clear,270,2013-01-04 18:54:00
12:54 PM,37.9,23.0,55,30.10,10.0,West,9.2,-,N/A,,Clear,270,2013-01-04 19:54:00
1:54 PM,39.9,21.9,49,30.09,10.0,West,10.4,-,N/A,,Clear,280,2013-01-04 20:54:00
2:54 PM,37.0,23.0,57,30.10,10.0,WSW,13.8,-,N/A,,Clear,250,2013-01-04 21:54:00
3:54 PM,33.1,21.9,64,30.13,10.0,WSW,10.4,-,N/A,,Clear,240,2013-01-04 22:54:00
4:54 PM,30.0,19.0,64,30.13,10.0,WSW,15.0,-,N/A,,Clear,240,2013-01-04 23:54:00
5:54 PM,27.0,18.0,69,30.17,10.0,SW,12.7,-,N/A,,Partly Cloudy,230,2013-01-05 00:54:00
6:54 PM,28.9,19.9,69,30.16,10.0,SSW,9.2,-,N/A,,Overcast,210,2013-01-05 01:54:00
7:54 PM,33.1,21.0,61,30.15,10.0,SW,11.5,-,N/A,,Overcast,230,2013-01-05 02:54:00
8:54 PM,28.9,19.0,67,30.15,10.0,WNW,5.8,-,N/A,,Mostly Cloudy,300,2013-01-05 03:54:00
10:54 PM,30.0,21.0,69,30.17,10.0,SW,3.5,-,N/A,,Overcast,230,2013-01-05 05:54:00
11:54 PM,30.0,21.0,69,30.17,10.0,West,4.6,-,N/A,,Overcast,260,2013-01-05 06:54:00